Weather History for KRBO - October, 2012

Change the Weather History Date:

Saturday, October 6, 2012

  Actual Average (KCRP) Record (KCRP)
Temperature  
Mean Temperature 78 °F 77 °F  
Max Temperature 90 °F 86 °F 96 °F (1989)
Min Temperature 68 °F 67 °F 53 °F (1975)
Degree Days  
Heating Degree Days 0 0  
Month to date heating degree days 0  
Since 1 July heating degree days 0  
Cooling Degree Days 14 12  
Month to date cooling degree days 75  
Year to date cooling degree days 3118  
Growing Degree Days 28 (Base 50)    
Moisture  
Dew Point 66 °F    
Average Humidity 68    
Maximum Humidity 91    
Minimum Humidity 42    
Precipitation  
Precipitation 0.00 in 0.12 in 2.26 in (1930)
Month to date precipitation 0.73  
Year to date precipitation 25.05  
Snow  
Snow 0.00 in - - ()
Month to date snowfall  
Since 1 July snowfall  
Since 1 September snowfall  
Snow Depth -    
Sea Level Pressure  
Sea Level Pressure 29.96 in    
Wind  
Wind Speed 5 mph (ESE)    
Max Wind Speed 16 mph    
Max Gust Speed 18 mph    
Visibility 10 miles    
Events      
T = Trace of Precipitation, MM = Missing Value Source: NWS Daily Summary

Daily Weather History Graph

Daily Weather History Graph

Search for Another Location

Airport or City:

Trip Planner

Search our weather history database for the weather conditions in past years. The results will help you decide how hot, cold, wet, or windy it might be!

Date:

Astronomy

Oct. 06, 2012 Rise Set
Actual Time 7:26 AM CDT 7:10 PM CDT
Civil Twilight 7:02 AM CDT 7:34 PM CDT
Nautical Twilight 6:35 AM CDT 8:01 PM CDT
Astronomical Twilight 6:08 AM CDT 8:28 PM CDT
Moon 11:49 PM CDT (10/6) 12:58 PM CDT (10/6)
Length of Visible Light 12h 31m
Length of Day
11h 44m
Waning Gibbous, 65% of the Moon is Illuminated
Oct 6
Waning Gibbous
Oct 8
Last Quarter
Oct 15
New
Oct 21
First Quarter
Oct 29
Full

Hourly Weather History & Observations

Time (CDT) Temp. Heat Index Dew Point Humidity Pressure Visibility Wind Dir Wind Speed Gust Speed Precip Events Conditions
12:15 AM 73.4 °F - 67.3 °F 81% 29.98 in 10.0 mi SE 6.9 mph - N/A   Clear
12:35 AM 73.0 °F - 67.3 °F 82% 29.97 in 10.0 mi SE 6.9 mph - N/A   Clear
12:55 AM 73.4 °F - 67.6 °F 82% 29.97 in 10.0 mi SE 5.8 mph - N/A   Clear
1:15 AM 73.4 °F - 67.8 °F 83% 29.97 in 10.0 mi SE 6.9 mph - N/A   Clear
1:55 AM 72.7 °F - 67.8 °F 85% 29.97 in 10.0 mi SSE 4.6 mph - N/A   Clear
2:35 AM 70.9 °F - 66.4 °F 86% 29.97 in 10.0 mi SW 3.5 mph - N/A   Clear
2:55 AM 69.8 °F - 65.5 °F 86% 29.97 in 10.0 mi Calm Calm - N/A   Clear
3:15 AM 69.6 °F - 65.8 °F 88% 29.96 in 10.0 mi Calm Calm - N/A   Clear
3:35 AM 69.4 °F - 65.3 °F 87% 29.96 in 10.0 mi Calm Calm - N/A   Clear
3:55 AM 69.1 °F - 65.7 °F 89% 29.95 in 10.0 mi Calm Calm - N/A   Clear
4:15 AM 69.8 °F - 66.2 °F 88% 29.95 in 10.0 mi Calm Calm - N/A   Clear
4:35 AM 69.1 °F - 65.8 °F 89% 29.95 in 10.0 mi Calm Calm - N/A   Clear
4:55 AM 68.7 °F - 65.7 °F 90% 29.96 in 10.0 mi Calm Calm - N/A   Clear
5:15 AM 69.3 °F - 66.2 °F 90% 29.96 in 10.0 mi Calm Calm - N/A   Scattered Clouds
5:35 AM 69.1 °F - 66.2 °F 91% 29.97 in 10.0 mi Calm Calm - N/A   Mostly Cloudy
5:55 AM 68.7 °F - 65.7 °F 90% 29.97 in 10.0 mi Calm Calm - N/A   Mostly Cloudy
6:15 AM 68.4 °F - 65.7 °F 91% 29.98 in 10.0 mi Calm Calm - N/A   Mostly Cloudy
6:35 AM 69.8 °F - 66.4 °F 89% 29.98 in 10.0 mi Calm Calm - N/A   Mostly Cloudy
6:55 AM 69.8 °F - 66.4 °F 89% 29.98 in 10.0 mi Calm Calm - N/A   Scattered Clouds
7:15 AM 68.9 °F - 65.8 °F 90% 29.99 in 10.0 mi Calm Calm - N/A   Scattered Clouds
7:35 AM 68.9 °F - 66.2 °F 91% 29.99 in 10.0 mi Calm Calm - N/A   Mostly Cloudy
7:55 AM 68.9 °F - 66.2 °F 91% 29.99 in 10.0 mi Calm Calm - N/A   Mostly Cloudy
8:15 AM 70.0 °F - 66.9 °F 90% 30.00 in 10.0 mi Calm Calm - N/A   Scattered Clouds
8:35 AM 71.6 °F - 67.8 °F 88% 30.00 in 10.0 mi NNE 3.5 mph - N/A   Scattered Clouds
8:55 AM 73.4 °F - 67.8 °F 83% 30.01 in 10.0 mi NNE 4.6 mph - N/A   Mostly Cloudy
9:15 AM 76.1 °F - 68.2 °F 76% 30.02 in 10.0 mi North 3.5 mph - N/A   Scattered Clouds
9:35 AM 77.4 °F - 68.2 °F 73% 30.02 in 10.0 mi Calm Calm - N/A   Clear
9:55 AM 79.0 °F - 67.8 °F 69% 30.02 in 10.0 mi Calm Calm - N/A   Clear
10:15 AM 80.2 °F 82.7 °F 67.5 °F 65% 30.02 in 10.0 mi Calm Calm - N/A   Clear
10:35 AM 81.0 °F 83.8 °F 68.0 °F 65% 30.01 in 10.0 mi Calm Calm - N/A   Clear
10:55 AM 81.9 °F 84.6 °F 67.6 °F 62% 30.01 in 10.0 mi Calm Calm - N/A   Mostly Cloudy
11:15 AM 83.3 °F 86.2 °F 67.8 °F 59% 30.00 in 10.0 mi SE 4.6 mph - N/A   Mostly Cloudy
11:35 AM 83.1 °F 85.9 °F 67.3 °F 59% 30.00 in 10.0 mi Calm Calm - N/A   Mostly Cloudy
11:55 AM 83.8 °F 86.7 °F 67.5 °F 58% 30.01 in 10.0 mi SSE 3.5 mph - N/A   Mostly Cloudy
12:15 PM 86.4 °F 89.4 °F 67.3 °F 53% 30.00 in 10.0 mi SE 4.6 mph - N/A   Overcast
12:35 PM 86.2 °F 89.1 °F 67.1 °F 53% 29.99 in 10.0 mi SSE 3.5 mph - N/A   Mostly Cloudy
12:55 PM 86.2 °F 88.4 °F 66.0 °F 51% 29.98 in 10.0 mi SE 3.5 mph 10.4 mph N/A   Scattered Clouds
1:15 PM 87.4 °F 89.1 °F 65.1 °F 47% 29.97 in 10.0 mi SE 5.8 mph - N/A   Clear
1:35 PM 88.3 °F 89.9 °F 64.2 °F 45% 29.96 in 10.0 mi ESE 8.1 mph - N/A   Clear
1:55 PM 89.2 °F 90.6 °F 64.2 °F 43% 29.95 in 10.0 mi SE 6.9 mph - N/A   Scattered Clouds
2:15 PM 89.8 °F 91.4 °F 64.6 °F 43% 29.94 in 10.0 mi SE 11.5 mph 17.3 mph N/A   Mostly Cloudy
2:35 PM 89.1 °F 90.6 °F 64.6 °F 44% 29.93 in 10.0 mi East 10.4 mph 16.1 mph N/A   Scattered Clouds
2:55 PM 89.4 °F 90.8 °F 64.4 °F 43% 29.92 in 10.0 mi NE 10.4 mph 17.3 mph N/A   Mostly Cloudy
3:15 PM 89.8 °F 91.0 °F 63.7 °F 42% 29.92 in 10.0 mi NE 10.4 mph 18.4 mph N/A   Mostly Cloudy
3:35 PM 89.8 °F 91.0 °F 63.9 °F 42% 29.92 in 10.0 mi ESE 9.2 mph - N/A   Scattered Clouds
3:55 PM 89.8 °F 91.4 °F 64.8 °F 43% 29.91 in 10.0 mi ESE 12.7 mph 16.1 mph N/A   Scattered Clouds
4:15 PM 88.7 °F 90.8 °F 65.3 °F 46% 29.91 in 10.0 mi East 16.1 mph - N/A   Scattered Clouds
4:35 PM 88.5 °F 90.1 °F 64.9 °F 45% 29.90 in 10.0 mi East 9.2 mph - N/A   Clear
4:55 PM 88.0 °F 89.3 °F 64.2 °F 45% 29.90 in 10.0 mi East 12.7 mph - N/A   Clear
5:15 PM 87.1 °F 88.3 °F 64.0 °F 46% 29.90 in 10.0 mi East 13.8 mph - N/A   Clear
5:35 PM 86.5 °F 87.6 °F 63.7 °F 46% 29.90 in 10.0 mi East 10.4 mph 16.1 mph N/A   Clear
5:55 PM 86.0 °F 86.8 °F 63.1 °F 46% 29.91 in 10.0 mi East 12.7 mph 16.1 mph N/A   Clear
6:15 PM 84.9 °F 86.3 °F 64.4 °F 50% 29.91 in 10.0 mi East 10.4 mph - N/A   Clear
6:35 PM 84.0 °F 85.6 °F 64.8 °F 52% 29.92 in 10.0 mi East 12.7 mph - N/A   Clear
6:55 PM 82.8 °F 84.3 °F 64.6 °F 54% 29.93 in 10.0 mi East 13.8 mph - N/A   Clear
7:15 PM 81.7 °F 83.6 °F 65.7 °F 58% 29.93 in 10.0 mi East 12.7 mph - N/A   Clear
7:35 PM 81.0 °F 82.9 °F 65.5 °F 59% 29.94 in 10.0 mi East 10.4 mph - N/A   Clear
7:55 PM 80.2 °F 82.2 °F 65.5 °F 61% 29.94 in 10.0 mi East 10.4 mph - N/A   Clear
8:15 PM 79.9 °F - 66.2 °F 63% 29.94 in 10.0 mi East 9.2 mph - N/A   Clear
8:35 PM 79.3 °F - 65.8 °F 63% 29.95 in 10.0 mi East 8.1 mph - N/A   Clear
8:55 PM 79.0 °F - 66.0 °F 64% 29.96 in 10.0 mi East 6.9 mph - N/A   Clear
9:15 PM 78.1 °F - 66.2 °F 67% 29.96 in 10.0 mi East 6.9 mph - N/A   Clear
9:35 PM 77.0 °F - 65.8 °F 68% 29.97 in 10.0 mi ENE 5.8 mph - N/A   Clear
9:55 PM 76.6 °F - 65.5 °F 68% 29.97 in 10.0 mi East 5.8 mph - N/A   Clear
10:15 PM 76.1 °F - 65.3 °F 69% 29.97 in 10.0 mi East 4.6 mph - N/A   Clear
10:35 PM 75.4 °F - 65.3 °F 71% 29.98 in 10.0 mi East 4.6 mph - N/A   Clear
11:15 PM 75.6 °F - 65.7 °F 71% 29.99 in 10.0 mi Calm Calm - N/A   Clear
11:35 PM 74.5 °F - 65.3 °F 73% 29.99 in 10.0 mi NE 3.5 mph - N/A   Scattered Clouds
11:55 PM 73.8 °F - 65.5 °F 75% 29.99 in 10.0 mi Calm Calm - N/A   Clear